Selinsgrove, PA

6:15 AM EST on December 16, 2019 (GMT -0500)
Penn Valley

Weather History for KSEG - October, 2019

Change the Weather History Date:

Tuesday, October 22, 2019

  Actual Average (WUND) Record (WUND)
Temperature  
Mean Temperature 56 °F -  
Max Temperature 60 °F - - (-1)
Min Temperature 51 °F - - (-1)
Degree Days  
Heating Degree Days 10    
Growing Degree Days 6 (Base 50)    
Moisture  
Dew Point 55 °F    
Average Humidity 91    
Maximum Humidity 100    
Minimum Humidity 78    
Precipitation  
Precipitation 0.70 in - - ()
Sea Level Pressure  
Sea Level Pressure 29.88 in    
Wind  
Wind Speed 5 mph (SSE)    
Max Wind Speed 17 mph    
Max Gust Speed 23 mph    
Visibility 6 miles    
Events Fog , Rain    
Averages and records for this station are not official NWS values.
T = Trace of Precipitation, MM = Missing Value Source: NWS Daily Summary

Daily Weather History Graph

Daily Weather History Graph

Search for Another Location

Airport or City:

Astronomy

Oct. 22, 2019 Rise Set
Actual Time 7:26 AM EDT 6:17 PM EDT
Civil Twilight 6:58 AM EDT 6:44 PM EDT
Nautical Twilight 6:26 AM EDT 7:16 PM EDT
Astronomical Twilight 5:54 AM EDT 7:48 PM EDT
Moon 12:30 AM EDT (10/22) 3:27 PM EDT (10/22)
Length of Visible Light 11h 46m
Length of Day
10h 50m
Last Quarter, 37% of the Moon is Illuminated
Oct 22
Last Quarter
Oct 27
New
Nov 4
First Quarter
Nov 12
Full
Nov 19
Last Quarter

Hourly Weather History & Observations

Time (EDT) Temp. Dew Point Humidity Pressure Visibility Wind Dir Wind Speed Gust Speed Precip Events Conditions
12:53 AM 51.1 °F 48.9 °F 92% 30.04 in 10.0 mi Calm Calm - N/A   Scattered Clouds
1:33 AM 57.9 °F 51.1 °F 78% 30.07 in 10.0 mi South 6.9 mph - N/A   Mostly Cloudy
1:53 AM 57.9 °F 51.1 °F 78% 30.06 in 10.0 mi Variable 4.6 mph - N/A   Overcast
2:53 AM 57.9 °F 52.0 °F 81% 30.05 in 10.0 mi SSE 8.1 mph - N/A   Overcast
3:53 AM 57.9 °F 53.1 °F 84% 30.00 in 10.0 mi SSE 8.1 mph 18.4 mph N/A   Overcast
4:39 AM 57.0 °F 53.1 °F 87% 30.00 in 10.0 mi SSE 9.2 mph - N/A   Overcast
4:53 AM 57.0 °F 53.1 °F 87% 30.00 in 10.0 mi South 8.1 mph - N/A   Overcast
5:53 AM 57.0 °F 53.1 °F 87% 29.98 in 10.0 mi SSE 12.7 mph 19.6 mph N/A   Overcast
6:53 AM 57.9 °F 53.1 °F 84% 29.97 in 10.0 mi South 11.5 mph 17.3 mph N/A   Overcast
7:53 AM 57.9 °F 53.1 °F 84% 29.97 in 10.0 mi South 4.6 mph - N/A   Overcast
8:04 AM 57.9 °F 53.1 °F 84% 29.97 in 10.0 mi Variable 4.6 mph - N/A   Overcast
8:43 AM 57.9 °F 54.0 °F 87% 29.97 in 10.0 mi SSE 4.6 mph - N/A   Overcast
8:53 AM 57.0 °F 54.0 °F 89% 29.98 in 7.0 mi South 5.8 mph - N/A   Overcast
9:53 AM 57.9 °F 54.0 °F 87% 29.96 in 10.0 mi SE 6.9 mph - N/A   Overcast
10:24 AM 57.9 °F 54.0 °F 87% 29.94 in 10.0 mi SE 4.6 mph - N/A   Overcast
10:53 AM 59.0 °F 54.0 °F 83% 29.92 in 10.0 mi SE 9.2 mph - N/A   Overcast
11:39 AM 60.1 °F 54.0 °F 80% 29.92 in 10.0 mi SSE 10.4 mph 20.7 mph N/A   Overcast
11:53 AM 60.1 °F 54.0 °F 80% 29.91 in 10.0 mi SSE 11.5 mph - N/A   Overcast
12:29 PM 60.1 °F 54.0 °F 80% 29.87 in 10.0 mi SSE 11.5 mph 18.4 mph N/A   Overcast
12:53 PM 60.1 °F 54.0 °F 80% 29.86 in 10.0 mi SSE 17.3 mph 23.0 mph N/A   Overcast
1:53 PM 59.0 °F 55.9 °F 90% 29.81 in 10.0 mi SSE 12.7 mph - 0.01 in Rain Light Rain
2:32 PM 60.1 °F 55.9 °F 86% 29.80 in 10.0 mi SSE 10.4 mph 20.7 mph 0.00 in Rain Light Rain
2:53 PM 60.1 °F 55.9 °F 86% 29.78 in 10.0 mi SSE 5.8 mph - 0.00 in Rain Light Rain
3:15 PM 59.0 °F 57.0 °F 93% 29.82 in 1.8 mi WSW 3.5 mph - 0.05 in Rain Heavy Rain
3:21 PM 59.0 °F 57.0 °F 93% 29.83 in 1.0 mi SW 4.6 mph - 0.10 in Rain Heavy Rain
3:49 PM 59.0 °F 57.2 °F 94% 29.84 in 2.0 mi Calm Calm - 0.30 in Rain Rain
3:50 PM 59.0 °F 57.0 °F 93% 29.84 in 2.0 mi Calm Calm - 0.30 in Rain Rain
4:00 PM 59.0 °F 57.0 °F 93% 29.83 in 2.0 mi Calm Calm - 0.04 in Rain Rain
4:14 PM 59.0 °F 57.0 °F 93% 29.82 in 3.0 mi Calm Calm - 0.08 in Rain Rain
4:24 PM 59.0 °F 57.9 °F 96% 29.83 in 2.0 mi Calm Calm - 0.11 in Rain Rain
4:29 PM 59.0 °F 57.9 °F 96% 29.84 in 1.8 mi Calm Calm - 0.13 in Rain Rain
4:41 PM 57.9 °F 57.9 °F 100% 29.84 in 1.5 mi Calm Calm - 0.18 in Rain Rain
4:46 PM 59.0 °F 57.9 °F 96% 29.84 in 2.0 mi Calm Calm - 0.19 in Rain Rain
4:53 PM 59.0 °F 57.0 °F 93% 29.84 in 2.5 mi Calm Calm - 0.21 in Rain Light Rain
5:00 PM 59.0 °F 57.9 °F 96% 29.84 in 3.0 mi Variable 3.5 mph - 0.01 in Rain Light Rain
5:08 PM 59.0 °F 57.0 °F 93% 29.84 in 2.0 mi Calm Calm - 0.03 in Rain Rain
5:33 PM 57.9 °F 57.0 °F 97% 29.83 in 3.0 mi Calm Calm - 0.08 in Rain Light Rain
5:53 PM 57.9 °F 57.0 °F 97% 29.82 in 6.0 mi Calm Calm - 0.11 in Rain Light Rain
6:53 PM 57.0 °F 55.9 °F 96% 29.80 in 10.0 mi Calm Calm - 0.06 in   Overcast
7:16 PM 57.0 °F 55.9 °F 96% 29.83 in 10.0 mi WNW 3.5 mph - 0.01 in Rain Light Rain
7:32 PM 57.0 °F 55.9 °F 96% 29.83 in 10.0 mi Calm Calm - 0.01 in   Overcast
7:53 PM 57.9 °F 55.9 °F 93% 29.83 in 10.0 mi Calm Calm - 0.01 in   Overcast
8:01 PM 57.0 °F 57.0 °F 100% 29.84 in 10.0 mi Calm Calm - N/A   Overcast
8:37 PM 57.0 °F 55.9 °F 96% 29.84 in 10.0 mi Calm Calm - N/A   Overcast
8:53 PM 57.0 °F 55.9 °F 96% 29.84 in 10.0 mi Calm Calm - N/A   Mostly Cloudy
9:13 PM 55.9 °F 55.0 °F 97% 29.84 in 3.0 mi Calm Calm - N/A   Mostly Cloudy
9:29 PM 55.0 °F 54.0 °F 96% 29.85 in 2.5 mi Calm Calm - N/A   Scattered Clouds
9:32 PM 54.0 °F 54.0 °F 100% 29.85 in 1.0 mi Calm Calm - N/A   Scattered Clouds
9:34 PM 53.1 °F 52.0 °F 96% 29.85 in 0.5 mi Calm Calm - N/A Fog Fog
9:43 PM 54.0 °F 53.1 °F 97% 29.85 in 0.2 mi NW 3.5 mph - N/A Fog Fog
9:53 PM 54.0 °F 54.0 °F 100% 29.85 in 0.2 mi Calm Calm - N/A Fog Fog
10:09 PM 55.0 °F 54.0 °F 96% 29.86 in 1.2 mi Calm Calm - N/A   Overcast
10:12 PM 55.0 °F 54.0 °F 96% 29.86 in 4.0 mi Calm Calm - N/A   Overcast
10:53 PM 55.0 °F 55.0 °F 100% 29.86 in 8.0 mi Calm Calm - N/A   Overcast
11:53 PM 54.0 °F 54.0 °F 100% 29.85 in 4.0 mi Calm Calm - N/A   Overcast